^^
Station Historical Data
Daily Summary for June 7, 2021 Units:  English    Metric   Both
Daily Weekly Monthly Yearly
  High: Low: Average:
Temperature: 80.1 °F 74.8 °F 76.7 °F
Dew Point: 72.5 °F 67.3 °F 69.8 °F
Humidity: 88% 73% 79%
Wind Speed: 14mph 0mph 1.6mph
Wind Gust: 15mph - -
Wind- - SSE
Pressure: 29.90 in 29.86 in -
Precipitation: 0.00 in    
 
 
Tabular Data for June 7, 2021
Time Temperature Dew Point Pressure Wind Wind Speed Wind Gust Humidity Rainfall Rate (Hourly) solar
00:00 76.5 °F 68.4 °F 29.86 in Calm     76% 0.00 in 0 W/m2
00:05 76.4 °F 68.7 °F 29.86 in Calm     77% 0.00 in 0 W/m2
00:10 76.3 °F 68.6 °F 29.86 in Calm     77% 0.00 in 0 W/m2
00:15 76.1 °F 68.4 °F 29.86 in Calm     77% 0.00 in 0 W/m2
00:20 76.2 °F 67.3 °F 29.86 in Calm     74% 0.00 in 0 W/m2
00:25 76.6 °F 67.7 °F 29.86 in Calm     74% 0.00 in 0 W/m2
00:30 76.9 °F 67.6 °F 29.86 in Calm     73% 0.00 in 0 W/m2
00:35 77 °F 68.1 °F 29.86 in Calm     74% 0.00 in 0 W/m2
00:40 77 °F 68.5 °F 29.86 in Calm     75% 0.00 in 0 W/m2
00:45 76.9 °F 68.8 °F 29.86 in Calm     76% 0.00 in 0 W/m2
00:50 76.8 °F 69 °F 29.86 in Calm     77% 0.00 in 0 W/m2
00:55 76.6 °F 68.8 °F 29.86 in Calm     77% 0.00 in 0 W/m2
01:00 76.4 °F 68.7 °F 29.86 in Calm     77% 0.00 in 0 W/m2
01:05 76.4 °F 68.3 °F 29.86 in Calm     76% 0.00 in 0 W/m2
01:10 76.4 °F 68.3 °F 29.86 in Calm     76% 0.00 in 0 W/m2
01:15 76.4 °F 68.7 °F 29.86 in Calm     77% 0.00 in 0 W/m2
01:20 76.5 °F 68.7 °F 29.86 in Calm     77% 0.00 in 0 W/m2
01:25 76.5 °F 68.7 °F 29.86 in Calm     77% 0.00 in 0 W/m2
01:30 76.4 °F 69 °F 29.86 in Calm     78% 0.00 in 0 W/m2
01:35 76.5 °F 69.1 °F 29.86 in Calm     78% 0.00 in 0 W/m2
01:40 76.4 °F 69 °F 29.86 in Calm     78% 0.00 in 0 W/m2
01:45 76.4 °F 68.7 °F 29.86 in Calm     77% 0.00 in 0 W/m2
01:50 76.5 °F 68.7 °F 29.86 in Calm     77% 0.00 in 0 W/m2
01:55 76.5 °F 69.1 °F 29.86 in Calm     78% 0.00 in 0 W/m2
02:00 76.5 °F 69.1 °F 29.86 in Calm     78% 0.00 in 0 W/m2
02:05 76.4 °F 69 °F 29.86 in Calm     78% 0.00 in 0 W/m2
02:10 76.4 °F 69 °F 29.86 in Calm     78% 0.00 in 0 W/m2
02:15 76.3 °F 68.9 °F 29.86 in Calm     78% 0.00 in 0 W/m2
02:20 76.4 °F 68.7 °F 29.86 in Calm     77% 0.00 in 0 W/m2
02:25 76.5 °F 68.7 °F 29.86 in Calm     77% 0.00 in 0 W/m2
02:30 76.6 °F 68.8 °F 29.86 in Calm     77% 0.00 in 0 W/m2
02:35 76.6 °F 68.8 °F 29.86 in Calm     77% 0.00 in 0 W/m2
02:40 76.6 °F 68.8 °F 29.86 in Calm     77% 0.00 in 0 W/m2
02:45 76.7 °F 68.6 °F 29.86 in Calm     76% 0.00 in 0 W/m2
02:50 76.8 °F 68.7 °F 29.86 in Calm     76% 0.00 in 0 W/m2
02:55 76.8 °F 68.7 °F 29.86 in Calm     76% 0.00 in 0 W/m2
03:00 76.8 °F 68.7 °F 29.86 in Calm     76% 0.00 in 0 W/m2
03:05 76.7 °F 68.9 °F 29.86 in Calm     77% 0.00 in 0 W/m2
03:10 76.6 °F 68.8 °F 29.86 in Calm     77% 0.00 in 0 W/m2
03:15 76.5 °F 68.7 °F 29.86 in Calm     77% 0.00 in 0 W/m2
03:20 76.4 °F 68.3 °F 29.86 in Calm     76% 0.00 in 0 W/m2
03:25 76.4 °F 68.7 °F 29.86 in Calm     77% 0.00 in 0 W/m2
03:30 76.3 °F 68.6 °F 29.86 in Calm     77% 0.00 in 0 W/m2
03:35 76.2 °F 68.5 °F 29.86 in Calm     77% 0.00 in 0 W/m2
03:40 76.2 °F 68.1 °F 29.86 in Calm     76% 0.00 in 0 W/m2
03:45 76.2 °F 68.5 °F 29.86 in Calm     77% 0.00 in 0 W/m2
03:50 76.2 °F 68.1 °F 29.86 in Calm     76% 0.00 in 0 W/m2
03:55 76.2 °F 68.5 °F 29.86 in Calm     77% 0.00 in 0 W/m2
04:00 76.1 °F 68 °F 29.86 in Calm     76% 0.00 in 0 W/m2
04:05 76.2 °F 68.5 °F 29.86 in Calm     77% 0.00 in 0 W/m2
04:10 76.1 °F 68 °F 29.86 in Calm     76% 0.00 in 0 W/m2
04:15 76.1 °F 68 °F 29.86 in Calm     76% 0.00 in 0 W/m2
04:20 76.1 °F 68 °F 29.86 in Calm     76% 0.00 in 0 W/m2
04:25 76.1 °F 68 °F 29.86 in Calm     76% 0.00 in 0 W/m2
04:30 76 °F 68.3 °F 29.86 in Calm     77% 0.00 in 0 W/m2
04:35 76 °F 68.3 °F 29.86 in Calm     77% 0.00 in 0 W/m2
04:40 75.9 °F 68.2 °F 29.86 in Calm     77% 0.00 in 0 W/m2
04:45 75.8 °F 68.1 °F 29.86 in Calm     77% 0.00 in 0 W/m2
04:50 75.7 °F 68.4 °F 29.86 in Calm     78% 0.00 in 0 W/m2
04:55 75.6 °F 68.3 °F 29.86 in Calm     78% 0.00 in 0 W/m2
05:00 75.6 °F 68.3 °F 29.86 in Calm     78% 0.00 in 0 W/m2
05:05 75.5 °F 68.5 °F 29.86 in Calm     79% 0.00 in 0 W/m2
05:10 75.3 °F 68.3 °F 29.86 in Calm     79% 0.00 in 0 W/m2
05:15 75.3 °F 68.7 °F 29.86 in Calm     80% 0.00 in 0 W/m2
05:20 75.3 °F 68.7 °F 29.86 in Calm     80% 0.00 in 0 W/m2
05:25 75.2 °F 68.2 °F 29.86 in Calm     79% 0.00 in 0 W/m2
05:30 75.2 °F 68.6 °F 29.86 in Calm     80% 0.00 in 0 W/m2
05:35 75.1 °F 68.5 °F 29.86 in Calm     80% 0.00 in 0 W/m2
05:40 75.1 °F 68.5 °F 29.86 in Calm     80% 0.00 in 0 W/m2
05:45 75 °F 68 °F 29.86 in Calm     79% 0.00 in 0 W/m2
05:50 75 °F 68.4 °F 29.86 in Calm     80% 0.00 in 0 W/m2
05:55 74.9 °F 68.3 °F 29.86 in Calm     80% 0.00 in 0 W/m2
06:00 74.9 °F 68.3 °F 29.86 in Calm     80% 0.00 in 5 W/m2
06:05 74.9 °F 67.9 °F 29.86 in Calm     79% 0.00 in 5 W/m2
06:10 74.8 °F 67.8 °F 29.86 in Calm   3 mph 79% 0.00 in 9 W/m2
06:15 74.9 °F 67.9 °F 29.87 in North 1 mph 3 mph 79% 0.00 in 12 W/m2
06:20 74.9 °F 67.9 °F 29.87 in South 3 mph 5 mph 79% 0.00 in 18 W/m2
06:25 74.9 °F 67.6 °F 29.87 in South 6 mph 8 mph 78% 0.00 in 21 W/m2
06:30 74.9 °F 67.6 °F 29.87 in South 8 mph 12 mph 78% 0.00 in 30 W/m2
06:35 74.9 °F 67.6 °F 29.87 in South 11 mph 15 mph 78% 0.00 in 35 W/m2
06:40 74.9 °F 67.9 °F 29.87 in South 14 mph 14 mph 79% 0.00 in 44 W/m2
06:45 74.8 °F 67.8 °F 29.87 in South 11 mph 14 mph 79% 0.00 in 58 W/m2
06:50 74.8 °F 67.5 °F 29.87 in WSW 5 mph 5 mph 78% 0.00 in 67 W/m2
06:55 75.1 °F 67.8 °F 29.88 in SSW 3 mph 5 mph 78% 0.00 in 77 W/m2
07:00 75.2 °F 67.5 °F 29.88 in ESE 3 mph 3 mph 77% 0.00 in 77 W/m2
07:05 75.2 °F 67.9 °F 29.88 in SE 3 mph 3 mph 78% 0.00 in 90 W/m2
07:10 75.2 °F 67.5 °F 29.88 in South 4 mph 4 mph 77% 0.00 in 81 W/m2
07:15 75.2 °F 67.9 °F 29.88 in South 4 mph 4 mph 78% 0.00 in 62 W/m2
07:20 75 °F 68 °F 29.88 in SSW 3 mph 4 mph 79% 0.00 in 60 W/m2
07:25 74.9 °F 67.9 °F 29.88 in SW 3 mph 6 mph 79% 0.00 in 58 W/m2
07:30 74.9 °F 67.9 °F 29.88 in SW 3 mph 3 mph 79% 0.00 in 65 W/m2
07:35 74.9 °F 67.9 °F 29.88 in SSE 3 mph 3 mph 79% 0.00 in 83 W/m2
07:40 74.8 °F 68.2 °F 29.88 in South 3 mph 3 mph 80% 0.00 in 125 W/m2
07:45 74.8 °F 68.2 °F 29.88 in ESE 2 mph 3 mph 80% 0.00 in 142 W/m2
07:50 74.8 °F 68.6 °F 29.88 in ENE 2 mph 3 mph 81% 0.00 in 132 W/m2
07:55 74.8 °F 68.2 °F 29.88 in NE 2 mph 3 mph 80% 0.00 in 125 W/m2
08:00 74.8 °F 68.6 °F 29.88 in SE 2 mph 2 mph 81% 0.00 in 120 W/m2
08:05 74.8 °F 68.2 °F 29.88 in South 2 mph 2 mph 80% 0.00 in 125 W/m2
08:10 74.9 °F 68.3 °F 29.89 in ESE 2 mph 2 mph 80% 0.00 in 137 W/m2
08:15 75 °F 68 °F 29.89 in SW 2 mph 2 mph 79% 0.00 in 144 W/m2
08:20 75 °F 68 °F 29.89 in SSW 2 mph 2 mph 79% 0.00 in 141 W/m2
08:25 75.1 °F 68.1 °F 29.89 in SW 2 mph 3 mph 79% 0.00 in 144 W/m2
08:30 75.1 °F 67.8 °F 29.89 in SSW 2 mph 4 mph 78% 0.00 in 160 W/m2
08:35 75.2 °F 68.2 °F 29.89 in NE 2 mph 4 mph 79% 0.00 in 169 W/m2
08:40 75.2 °F 68.2 °F 29.89 in SW 2 mph 4 mph 79% 0.00 in 169 W/m2
08:45 75.3 °F 68.3 °F 29.89 in SSW 2 mph 4 mph 79% 0.00 in 185 W/m2
08:50 75.3 °F 68.3 °F 29.89 in SW 3 mph 5 mph 79% 0.00 in 193 W/m2
08:55 75.3 °F 68.3 °F 29.89 in SW 3 mph 5 mph 79% 0.00 in 209 W/m2
09:00 75.3 °F 68.3 °F 29.89 in NE 3 mph 3 mph 79% 0.00 in 197 W/m2
09:05 75.3 °F 68.3 °F 29.89 in SSW 2 mph 3 mph 79% 0.00 in 209 W/m2
09:10 75.5 °F 68.5 °F 29.89 in South 3 mph 3 mph 79% 0.00 in 506 W/m2
09:15 75.6 °F 68.6 °F 29.89 in SSW 3 mph 3 mph 79% 0.00 in 610 W/m2
09:20 75.8 °F 68.8 °F 29.89 in SW 3 mph 3 mph 79% 0.00 in 367 W/m2
09:25 75.8 °F 68.4 °F 29.90 in WSW 3 mph 5 mph 78% 0.00 in 274 W/m2
09:30 75.8 °F 68.4 °F 29.90 in South 3 mph 4 mph 78% 0.00 in 241 W/m2
09:35 75.8 °F 68.4 °F 29.90 in WSW 3 mph 4 mph 78% 0.00 in 248 W/m2
09:40 75.8 °F 68.8 °F 29.90 in SW 4 mph 6 mph 79% 0.00 in 536 W/m2
09:45 75.9 °F 68.9 °F 29.90 in SSW 4 mph 6 mph 79% 0.00 in 213 W/m2
09:50 76 °F 69 °F 29.90 in West 4 mph 4 mph 79% 0.00 in 494 W/m2
09:55 76 °F 69 °F 29.90 in SW 4 mph 4 mph 79% 0.00 in 439 W/m2
10:00 76 °F 69.4 °F 29.90 in SW 4 mph 5 mph 80% 0.00 in 413 W/m2
10:05 76 °F 69.4 °F 29.90 in WSW 3 mph 5 mph 80% 0.00 in 425 W/m2
10:15 76 °F 69 °F 29.90 in SSW 4 mph 4 mph 79% 0.00 in 360 W/m2
10:30 75.9 °F 68.9 °F 29.89 in SSW 3 mph 4 mph 79% 0.00 in 446 W/m2
10:35 75.9 °F 69.3 °F 29.89 in SSW 3 mph 4 mph 80% 0.00 in 719 W/m2
10:45 76.1 °F 69.1 °F 29.89 in SW 3 mph 3 mph 79% 0.00 in 650 W/m2
10:50 76.2 °F 69.2 °F 29.90 in SSW 3 mph 3 mph 79% 0.00 in 649 W/m2
10:55 76.4 °F 69 °F 29.89 in SSW 3 mph 3 mph 78% 0.00 in 744 W/m2
11:00 76.6 °F 69.2 °F 29.89 in SSW 3 mph 4 mph 78% 0.00 in 454 W/m2
11:05 76.7 °F 69.3 °F 29.90 in SW 3 mph 4 mph 78% 0.00 in 452 W/m2
11:10 76.6 °F 69.2 °F 29.90 in SSW 3 mph 3 mph 78% 0.00 in 420 W/m2
11:15 76.7 °F 69.7 °F 29.90 in East 3 mph 3 mph 79% 0.00 in 499 W/m2
11:20 76.8 °F 69.8 °F 29.90 in West 2 mph 2 mph 79% 0.00 in 541 W/m2
11:25 76.9 °F 69.5 °F 29.90 in SSW 2 mph 2 mph 78% 0.00 in 670 W/m2
11:30 77.1 °F 69.7 °F 29.90 in SW 2 mph 3 mph 78% 0.00 in 849 W/m2
11:35 77.4 °F 69.6 °F 29.90 in SSE 2 mph 3 mph 77% 0.00 in 826 W/m2
11:45 77.8 °F 70 °F 29.90 in SW 3 mph 3 mph 77% 0.00 in 712 W/m2
11:50 77.9 °F 70.1 °F 29.90 in SW 2 mph 3 mph 77% 0.00 in 740 W/m2
11:55 78.2 °F 70.8 °F 29.90 in NE 2 mph 2 mph 78% 0.00 in 756 W/m2
12:00 78.4 °F 70.2 °F 29.90 in SW 2 mph 3 mph 76% 0.00 in 798 W/m2
12:05 78.7 °F 70.5 °F 29.90 in ESE 2 mph 3 mph 76% 0.00 in 754 W/m2
12:10 78.9 °F 70.3 °F 29.90 in SSW 3 mph 3 mph 75% 0.00 in 696 W/m2
12:15 79.3 °F 70.7 °F 29.90 in SSW 3 mph 4 mph 75% 0.00 in 777 W/m2
12:20 79.7 °F 71.1 °F 29.90 in South 3 mph 3 mph 75% 0.00 in 749 W/m2
12:25 80 °F 71.4 °F 29.90 in South 4 mph 4 mph 75% 0.00 in 766 W/m2
12:30 80.1 °F 71.5 °F 29.90 in North 3 mph 3 mph 75% 0.00 in 761 W/m2
12:35 79.8 °F 71.2 °F 29.90 in North 1 mph 3 mph 75% 0.00 in 475 W/m2
12:40 79.7 °F 71.1 °F 29.90 in Calm     75% 0.00 in 452 W/m2
12:45 79.7 °F 71.5 °F 29.90 in Calm     76% 0.00 in 654 W/m2
12:50 79.6 °F 71.4 °F 29.90 in Calm     76% 0.00 in 608 W/m2
12:55 79.5 °F 71.7 °F 29.90 in Calm     77% 0.00 in 538 W/m2
13:00 79.4 °F 71.2 °F 29.90 in Calm     76% 0.00 in 503 W/m2
13:05 79.4 °F 71.2 °F 29.89 in Calm     76% 0.00 in 482 W/m2
13:10 79.3 °F 71.1 °F 29.89 in Calm     76% 0.00 in 461 W/m2
13:15 79.4 °F 71.2 °F 29.89 in Calm     76% 0.00 in 436 W/m2
13:20 79.3 °F 71.5 °F 29.89 in Calm     77% 0.00 in 448 W/m2
13:25 79.3 °F 71.5 °F 29.89 in Calm     77% 0.00 in 413 W/m2
13:30 79.2 °F 71.4 °F 29.89 in Calm     77% 0.00 in 390 W/m2
13:35 79.2 °F 71.4 °F 29.89 in SSW 1 mph 3 mph 77% 0.00 in 396 W/m2
13:40 79.1 °F 71.3 °F 29.89 in SE 2 mph 2 mph 77% 0.00 in 394 W/m2
13:45 79.1 °F 71.6 °F 29.89 in SW 2 mph 4 mph 78% 0.00 in 352 W/m2
13:50 79.1 °F 71.6 °F 29.89 in SE 3 mph 3 mph 78% 0.00 in 352 W/m2
13:55 79.2 °F 71.4 °F 29.89 in SSE 2 mph 3 mph 77% 0.00 in 376 W/m2
14:00 79.3 °F 71.5 °F 29.89 in ESE 1 mph 1 mph 77% 0.00 in 408 W/m2
14:05 79.3 °F 71.5 °F 29.89 in WSW 1 mph 2 mph 77% 0.00 in 401 W/m2
14:10 79.4 °F 71.6 °F 29.89 in North 1 mph 1 mph 77% 0.00 in 420 W/m2
14:15 79.4 °F 71.6 °F 29.89 in ESE 2 mph 2 mph 77% 0.00 in 427 W/m2
14:20 79.4 °F 71.6 °F 29.89 in SW 1 mph 1 mph 77% 0.00 in 401 W/m2
14:25 79.4 °F 71.6 °F 29.89 in East 1 mph 1 mph 77% 0.00 in 408 W/m2
14:30 79.5 °F 71.3 °F 29.89 in SE 1 mph 1 mph 76% 0.00 in 394 W/m2
14:35 79.5 °F 71.3 °F 29.89 in SSE 1 mph 3 mph 76% 0.00 in 373 W/m2
14:40 79.6 °F 71.8 °F 29.89 in SSE 2 mph 2 mph 77% 0.00 in 367 W/m2
14:45 79.6 °F 71 °F 29.89 in SSW 2 mph 5 mph 75% 0.00 in 366 W/m2
14:50 79.5 °F 71.3 °F 29.89 in East 3 mph 3 mph 76% 0.00 in 350 W/m2
14:55 79.3 °F 71.1 °F 29.88 in South 3 mph 5 mph 76% 0.00 in 327 W/m2
15:00 79.4 °F 71.2 °F 29.88 in SSE 2 mph 4 mph 76% 0.00 in 278 W/m2
15:05 79.4 °F 70.8 °F 29.88 in SSW 2 mph 4 mph 75% 0.00 in 246 W/m2
15:10 79.5 °F 71.7 °F 29.88 in NNE 2 mph 3 mph 77% 0.00 in 227 W/m2
15:15 79.3 °F 72.2 °F 29.88 in NE 2 mph 5 mph 79% 0.00 in 202 W/m2
15:20 78.9 °F 72.2 °F 29.88 in NE 3 mph 3 mph 80% 0.00 in 185 W/m2
15:25 78.6 °F 71.9 °F 29.88 in North 2 mph 3 mph 80% 0.00 in 179 W/m2
15:30 78.4 °F 71.3 °F 29.88 in WSW 2 mph 2 mph 79% 0.00 in 185 W/m2
15:35 78.3 °F 71.6 °F 29.88 in NE 2 mph 3 mph 80% 0.00 in 190 W/m2
15:40 78.1 °F 71.4 °F 29.88 in NE 2 mph 2 mph 80% 0.00 in 200 W/m2
15:45 77.9 °F 71.6 °F 29.88 in NE 2 mph 2 mph 81% 0.00 in 206 W/m2
15:50 77.9 °F 71.6 °F 29.88 in ENE 2 mph 2 mph 81% 0.00 in 211 W/m2
15:55 78 °F 71.7 °F 29.88 in North 2 mph 2 mph 81% 0.00 in 221 W/m2
16:00 78.3 °F 72 °F 29.89 in ESE 1 mph 2 mph 81% 0.00 in 237 W/m2
16:05 78.5 °F 72.5 °F 29.89 in NE 2 mph 2 mph 82% 0.00 in 248 W/m2
16:10 78.7 °F 72.4 °F 29.89 in NNE 2 mph 2 mph 81% 0.00 in 230 W/m2
16:15 78.8 °F 72.1 °F 29.89 in SE 2 mph 3 mph 80% 0.00 in 207 W/m2
16:20 79 °F 71.6 °F 29.89 in SSW 2 mph 3 mph 78% 0.00 in 186 W/m2
16:25 79.1 °F 71.6 °F 29.89 in SW 3 mph 4 mph 78% 0.00 in 178 W/m2
16:30 79 °F 71.6 °F 29.89 in ENE 3 mph 3 mph 78% 0.00 in 162 W/m2
16:35 78.9 °F 71.5 °F 29.89 in SSW 3 mph 7 mph 78% 0.00 in 155 W/m2
16:40 78.8 °F 71.4 °F 29.89 in SSW 3 mph 3 mph 78% 0.00 in 149 W/m2
16:45 78.7 °F 71.3 °F 29.89 in SW 3 mph 4 mph 78% 0.00 in 142 W/m2
16:50 78.7 °F 71.6 °F 29.89 in SSW 4 mph 4 mph 79% 0.00 in 142 W/m2
16:55 78.6 °F 71.5 °F 29.89 in SW 4 mph 4 mph 79% 0.00 in 148 W/m2
17:00 78.5 °F 71.8 °F 29.89 in SW 4 mph 4 mph 80% 0.00 in 153 W/m2
17:05 78.4 °F 71.7 °F 29.89 in SSW 4 mph 5 mph 80% 0.00 in 151 W/m2
17:15 77.4 °F 71.1 °F 29.89 in South 3 mph 3 mph 81% 0.00 in 135 W/m2
17:20 77 °F 71.1 °F 29.89 in SSE 3 mph 3 mph 82% 0.00 in 121 W/m2
17:25 76.9 °F 71.3 °F 29.89 in WSW 2 mph 2 mph 83% 0.00 in 105 W/m2
17:35 76.8 °F 71.2 °F 29.89 in ESE 2 mph 2 mph 83% 0.00 in 97 W/m2
17:40 76.7 °F 70.8 °F 29.89 in SW 2 mph 3 mph 82% 0.00 in 97 W/m2
17:45 76.8 °F 70.9 °F 29.89 in SW 2 mph 2 mph 82% 0.00 in 95 W/m2
17:50 76.8 °F 70.5 °F 29.89 in ENE 2 mph 2 mph 81% 0.00 in 93 W/m2
17:55 76.9 °F 70.6 °F 29.89 in SW 2 mph 4 mph 81% 0.00 in 93 W/m2
18:00 77 °F 71.1 °F 29.88 in SSE 2 mph 2 mph 82% 0.00 in 90 W/m2
18:05 77 °F 71.1 °F 29.88 in WSW 3 mph 3 mph 82% 0.00 in 86 W/m2
18:10 76.9 °F 71 °F 29.88 in SE 2 mph 2 mph 82% 0.00 in 86 W/m2
18:15 76.7 °F 70.8 °F 29.88 in East 2 mph 2 mph 82% 0.00 in 84 W/m2
18:20 76.7 °F 71.1 °F 29.88 in SW 2 mph 4 mph 83% 0.00 in 81 W/m2
18:25 76.5 °F 70.9 °F 29.88 in SW 2 mph 4 mph 83% 0.00 in 79 W/m2
18:30 76.4 °F 70.5 °F 29.88 in WSW 3 mph 3 mph 82% 0.00 in 76 W/m2
18:35 76.4 °F 70.9 °F 29.88 in SSW 3 mph 5 mph 83% 0.00 in 74 W/m2
18:40 76.4 °F 71.2 °F 29.88 in SW 3 mph 3 mph 84% 0.00 in 72 W/m2
18:45 76.3 °F 70.8 °F 29.88 in West 3 mph 3 mph 83% 0.00 in 69 W/m2
18:50 76.2 °F 71 °F 29.88 in WSW 3 mph 4 mph 84% 0.00 in 69 W/m2
18:55 76.1 °F 70.6 °F 29.88 in WSW 3 mph 4 mph 83% 0.00 in 70 W/m2
19:00 76.1 °F 70.9 °F 29.88 in SW 3 mph 3 mph 84% 0.00 in 72 W/m2
19:05 76.1 °F 70.9 °F 29.88 in SSW 3 mph 3 mph 84% 0.00 in 70 W/m2
19:10 76.1 °F 71.3 °F 29.88 in SW 2 mph 2 mph 85% 0.00 in 67 W/m2
19:15 76 °F 71.2 °F 29.89 in ENE 2 mph 2 mph 85% 0.00 in 60 W/m2
19:20 75.9 °F 71.1 °F 29.89 in SSW 2 mph 2 mph 85% 0.00 in 56 W/m2
19:25 76 °F 71.5 °F 29.89 in WSW 2 mph 2 mph 86% 0.00 in 53 W/m2
19:30 76 °F 71.5 °F 29.89 in WSW 2 mph 2 mph 86% 0.00 in 46 W/m2
19:35 75.9 °F 71.1 °F 29.89 in SW 2 mph 2 mph 85% 0.00 in 42 W/m2
19:40 76 °F 71.5 °F 29.89 in South 1 mph 2 mph 86% 0.00 in 44 W/m2
19:45 76 °F 71.5 °F 29.89 in SW 1 mph 2 mph 86% 0.00 in 44 W/m2
19:50 75.9 °F 71.4 °F 29.89 in North 1 mph 1 mph 86% 0.00 in 42 W/m2
19:55 75.9 °F 71.1 °F 29.89 in South 1 mph 1 mph 85% 0.00 in 37 W/m2
20:00 75.9 °F 71.1 °F 29.89 in South 1 mph 1 mph 85% 0.00 in 32 W/m2
20:05 75.9 °F 71.1 °F 29.89 in East 1 mph 1 mph 85% 0.00 in 26 W/m2
20:10 75.9 °F 71.1 °F 29.89 in SW 1 mph 1 mph 85% 0.00 in 21 W/m2
20:15 75.9 °F 71.1 °F 29.89 in NE 1 mph 1 mph 85% 0.00 in 18 W/m2
20:20 75.9 °F 71.1 °F 29.89 in West 1 mph 1 mph 85% 0.00 in 16 W/m2
20:25 75.9 °F 71.1 °F 29.89 in Calm   1 mph 85% 0.00 in 14 W/m2
20:30 75.9 °F 71.1 °F 29.89 in Calm     85% 0.00 in 12 W/m2
20:35 75.8 °F 71 °F 29.89 in Calm     85% 0.00 in 11 W/m2
20:40 75.8 °F 71 °F 29.89 in Calm     85% 0.00 in 9 W/m2
20:45 75.8 °F 71 °F 29.89 in Calm     85% 0.00 in 7 W/m2
20:50 75.8 °F 71.3 °F 29.89 in Calm     86% 0.00 in 5 W/m2
20:55 75.8 °F 71.3 °F 29.89 in Calm   1 mph 86% 0.00 in 5 W/m2
21:00 75.8 °F 71.7 °F 29.89 in Calm     87% 0.00 in 0 W/m2
21:05 75.8 °F 71.7 °F 29.89 in Calm     87% 0.00 in 0 W/m2
21:10 75.8 °F 71.7 °F 29.89 in Calm   1 mph 87% 0.00 in 0 W/m2
21:15 75.8 °F 71.7 °F 29.89 in Calm   1 mph 87% 0.00 in 0 W/m2
21:20 75.8 °F 71.7 °F 29.89 in NE 1 mph 1 mph 87% 0.00 in 0 W/m2
21:25 75.8 °F 72 °F 29.89 in NNE 1 mph 1 mph 88% 0.00 in 0 W/m2
21:30 75.9 °F 72.1 °F 29.89 in NE 1 mph 1 mph 88% 0.00 in 0 W/m2
21:35 75.9 °F 72.1 °F 29.89 in Calm   2 mph 88% 0.00 in 0 W/m2
21:40 75.9 °F 72.1 °F 29.90 in Calm   1 mph 88% 0.00 in 0 W/m2
21:45 75.9 °F 72.1 °F 29.90 in ENE 1 mph 1 mph 88% 0.00 in 0 W/m2
21:50 76 °F 72.2 °F 29.90 in NE 1 mph 1 mph 88% 0.00 in 0 W/m2
Sand Point, Michigan, USA
Compliments of Weather Underground - 2 mb